カタログに戻る

QIANFAN-186

運用中通信PO
NORAD 69404·PAYLOAD·🇨🇳 China

打ち上げ Jun 5, 2026 から Wenchang Space Launch Site

Loading…

次のパス (今後24時間)

TLE

最新Source: Space-Track

元期: Sep 14, 2026, 23:28 UTC

1 69404U 26125D   26257.97841833  .00000000  00000-0 -19319-4 0  9992
2 69404  88.9885 270.8949 0001988  96.3670 263.7708 13.51008208 14069

AllMySatでQIANFAN-186をリアルタイム追跡

Download on the App Store